sat.trackr.live / text

‹ back to catalog

STARLINK-36861

NORAD 67934 · 2026-037C

PAYLOAD ACTIVE UNKNOWN

§ Identity

Operator
Country
US
Launch date
2026-02-24
Launch site
AFETR
Launch vehicle
Mass (kg)
RCS (m²)

Purposes: comms

External: N2YO · Heavens-Above · Gunter

§ Orbital elements

Epoch: 2026-09-19T11:21:36.752256Z

Period
94.27 min
Inclination
43.0021°
Eccentricity
0.0001397
Mean motion
15.27596063 rev/d
Perigee alt
482.0 km
Apogee alt
484.0 km
Semi-major
6,861.1 km
B*
4.5050e-4
RAAN
176.6649°
Arg perigee
279.7579°
Mean anomaly
80.3115°
Rev number
3,297

§ Raw data

STARLINK-368611 67934U 26037C   26262.47334204  .00012161  00000+0  45050-3 0  99992 67934  43.0021 176.6649 0001397 279.7579  80.3115 15.27596063 32979

JSON: /api/v1/satellites/67934 · /tle

For live sub-satellite position, see the globe view (requires WebGL).

§ Visibility from observer

Set your observer location to see the next 7 days of passes ≥ 10°. The values pass through the URL so the page stays shareable.

No JS? Fill the form by hand. The geolocation button needs JavaScript.